Home > Weather > United Kingdom > Ipswich > Past weeks

Flag for United Kingdom Weather past 2 weeks in Ipswich, England, United Kingdom

55 °F

Scattered clouds.

Feels Like: 51 °F
Forecast: 45 / 55 °F
Wind: 18 mph from Southwest

Location: Wattisham

Current Time: Dec 1, 2015 at 1:49:32 PM

Latest Report: Dec 1, 2015 at 12:50 PM

Visibility: N/A

Pressure: 30.15 "Hg

Humidity: 82%

Dew point: 50 °F

Location of IpswichLocation

Historic Weather in Ipswich — Graph


Ipswich temperature yesterday

Maximum temperature yesterday: 55 °F (at 6:50 PM)
Minimum temperature yesterday: 41 °F (at 2:50 AM)
Average temperature yesterday: 48 °F

Past Weeks' High & Low Weather Summary

High57 °F (Nov 17, 3:50 PM)100% (Nov 16, 10:50 PM)30.24 "Hg (Nov 16, 10:50 PM)
Low28 °F (Nov 22, 2:50 AM)63% (Nov 16, 2:50 PM)29.45 "Hg (Nov 17, 3:50 PM)
Average45 °F86%29.83 "Hg
* Reported Nov 16 12:50 PM — Dec 1 12:50 PM, Ipswich, Weather by CustomWeather, © 2015

Note: Actual official high and low records may vary slightly from our data, if they occured in-between our weather recording intervals... More about our weather records


Ipswich weather history for previous 24 hours

Time TempWeatherWind HumidityBarometerVisibility
12:50 PM
Tue, Dec 1
55 °FScattered clouds.18 mph82%30.15 "HgN/A
11:50 AM55 °FBroken clouds.20 mph82%30.18 "HgN/A
10:50 AM54 °FPartly sunny.15 mph94%30.15 "HgN/A
9:50 AM50 °FPartly sunny.10 mph100%30.15 "HgN/A
8:50 AM46 °FFog.8 mph100%30.12 "Hg1 mi
7:50 AM45 °FDrizzle. Partly sunny.6 mph100%30.12 "Hg1 mi
6:50 AM45 °FDrizzle. Mostly cloudy.3 mph93%30.12 "Hg2 mi
5:50 AM43 °FDrizzle. Mostly cloudy.No wind100%30.12 "Hg1 mi
4:50 AM43 °FDrizzle. Low clouds.3 mph100%30.12 "Hg3 mi
3:50 AM45 °FDrizzle. Mostly cloudy.6 mph93%30.12 "Hg5 mi
2:50 AM45 °FFog.5 mph93%30.09 "Hg4 mi
1:50 AM45 °FFog.6 mph100%30.09 "Hg4 mi
12:50 AM45 °FFog.6 mph100%30.07 "Hg4 mi
11:50 PM
Mon, Nov 30
46 °FFog.5 mph93%30.04 "Hg4 mi
10:50 PM46 °FMostly cloudy.6 mph93%30.01 "HgN/A
9:50 PM46 °FDrizzle. Low clouds.10 mph100%29.98 "Hg3 mi
8:50 PM50 °FDrizzle. Mostly cloudy.15 mph100%29.95 "Hg2 mi
7:50 PM55 °FRain. Passing clouds.24 mph88%29.89 "Hg3 mi
6:50 PM55 °FPartly cloudy.26 mph82%29.83 "HgN/A
5:50 PM54 °FMostly cloudy.22 mph88%29.80 "HgN/A
4:50 PM54 °FPassing clouds.24 mph88%29.80 "HgN/A
3:50 PM52 °FLight rain. Passing clouds.26 mph94%29.80 "Hg4 mi
2:50 PM52 °FLight rain. Partly sunny.26 mph88%29.77 "HgN/A
1:50 PM52 °FLight rain. Partly sunny.28 mph88%29.77 "Hg5 mi
Weather by CustomWeather, © 2015

See weather overviewHow to use our weather pages